Terminal Aerodrome Forecast
Issued by NWS Newport/Morehead City, NC

Home | Current Version | Previous Version | Graphics & Text | Print | Product List | Glossary On
Versions: 1 2 3 4 5 6 7 8 9 10 11 12 13 14 15 16 17 18 19 20 21 22 23 24 25 26
000
FTUS42 KMHX 201132 CCA
TAFEWN
TAF COR
KEWN 201132Z 2012/2112 24007KT P6SM SCT005 BKN035
     FM201500 22013G20KT P6SM SCT035
     FM210100 23009KT P6SM BKN030=

USA.gov is the U.S. government's official web portal to all federal, state and local government web resources and services.